Back to catalog

CZ-6A DEB

AlivePO
NORAD 60895·DEBRIS·🇨🇳 China

Launched Aug 6, 2024 from Taiyuan Satellite Launch Center

Loading…

Next Passes (next 24 hours)

TLE

FreshSource: Space-Track

Epoch: Sep 14, 2026, 13:47 UTC

1 60895U 24140LA  26257.57492073  .00001223  00000-0  53888-3 0  9991
2 60895  89.3484 296.2624 0048074 255.2862 104.2999 14.22302511107441

Track CZ-6A DEB in real time with AllMySat

Download on the App Store